Location: ?????
(37.7324°N, 23.9257°E)
Time: 21:40:24
(UTC+00:00)

BREEZE-M DEB (TANK) - Pass Details

Date: 29 November 2020
Orbit: 311 x 15409 km, 49.5° (Epoch: 18 January)

Event Time Altitude Azimuth Distance (km) Brightness Sun altitude
Exits shadow 02:36:50 57° 323° (NW) 1,747 4.4 -31.6°
Maximum altitude 02:37:39 59° 345° (NNW) 1,867 4.7 -31.4°
Drops below altitude 10° 03:02:54 10° 64° (ENE) 10,122 9.4 -26.4°
Sets 03:20:44 0° 70° (ENE) 14,488 10.5 -23.0°
